Flag for Germany Weather past 2 weeks in Minden, North Rhine-Westphalia, Germany

Now
61 °F

Passing clouds.


Feels Like: 61 °F
Forecast: 56 / 85 °F
Wind: 8 mph from West

Location: Bueckeburg

Current Time: Jul 6, 2015 at 7:06:39 AM

Latest Report: Jul 6, 2015 at 6:20 AM


Visibility: N/A

Pressure: 30.09 "Hg

Humidity: 94%

Dew point: 59 °F

Location of MindenLocation

Historic Weather in Minden — Graph

°F

Minden temperature yesterday

Maximum temperature yesterday: 82 °F (at 3:20 PM)
Minimum temperature yesterday: 66 °F (at 11:20 PM)
Average temperature yesterday: 74 °F

Past Weeks' High & Low Weather Summary

 TemperatureHumidityPressure
High97 °F (Jul 4, 3:20 PM)100% (Jun 22, 12:20 AM)30.27 "Hg (Jun 22, 12:20 AM)
Low48 °F (Jun 22, 11:20 PM)34% (Jul 2, 5:20 PM)29.65 "Hg (Jun 22, 9:20 PM)
Average67 °F70%30.06 "Hg
* Reported Jun 21 5:20 AM — Jul 6 5:20 AM, Minden, Weather by CustomWeather, © 2015

Note: Actual official high and low records may vary slightly from our data, if they occured in-between our weather recording intervals... More about our weather records

Advertising

Minden weather history for previous 24 hours

 ConditionsComfort  
Time TempWeatherWind HumidityBarometerVisibility
5:20 AM
Mon, Jul 6
59 °FPassing clouds.6 mph100%30.07 "HgN/A
4:20 AM63 °FPassing clouds.7 mph94%30.07 "HgN/A
3:20 AM64 °FPassing clouds.8 mph88%30.07 "HgN/A
2:20 AM64 °FPassing clouds.6 mph94%30.07 "HgN/A
1:20 AM64 °FLow clouds.6 mph94%30.04 "HgN/A
12:20 AM64 °FSprinkles. Mostly cloudy.6 mph100%30.01 "Hg5 mi
11:20 PM
Sun, Jul 5
66 °FSprinkles. Fog.5 mph94%29.98 "Hg3 mi
10:20 PM68 °FThundershowers. Partly sunny.6 mph94%29.98 "Hg6 mi
9:20 PM70 °FThunderstorms. Mostly cloudy.13 mph88%29.95 "Hg4 mi
6:01 PM70 °FStrong thunderstorms. Fog.16 mph88%29.95 "Hg1 mi
5:20 PM75 °FThunderstorms. Broken clouds.18 mph61%29.95 "Hg3 mi
5:00 PM75 °FThunderstorms. Broken clouds.15 mph78%29.98 "HgN/A
4:20 PM81 °FThundershowers. Partly sunny.5 mph54%29.95 "HgN/A
3:58 PM81 °FThunderstorms. Partly sunny.10 mph54%29.95 "HgN/A
3:20 PM82 °FPartly sunny.7 mph55%29.95 "HgN/A
2:20 PM73 °FBroken clouds.3 mph83%29.98 "HgN/A
1:20 PM72 °FSprinkles. Partly sunny.1 mph94%30.07 "Hg5 mi
1:01 PM73 °FThunderstorms. Fog.3 mph89%30.09 "Hg3 mi
12:20 PM75 °FBroken clouds.8 mph78%30.09 "Hg5 mi
11:20 AM75 °FBroken clouds.5 mph78%30.04 "Hg5 mi
10:20 AM75 °FBroken clouds.8 mph74%30.07 "Hg4 mi
9:20 AM75 °FBroken clouds.2 mph74%30.07 "Hg5 mi
8:20 AM73 °FPartly sunny.1 mph78%30.07 "Hg6 mi
7:20 AM73 °FScattered clouds.2 mph78%30.07 "HgN/A
Weather by CustomWeather, © 2015

See weather overviewHow to use our weather pages